Weather in Vanzevat

Russia / Khanty-Mansi Autonomous Okrug — Yugra     64°14′01″N   66°02′10″E
В апреле 2022 года жителям России запретили посещать сайт meteo.paraplan.net по решению Генеральной прокуратуры. Аудитория сайта уменьшилась в 10 раз. Владельцы сайта не видят смысла в поддержке погодного сервера в таких условиях. Сайт будет закрыт в октябре.
temp.,
°C
wind,
m/s
gust,
m/s
humid.,
%
clouds,
%
prec.,
mm/h
press.,
hPa
HPBL,
m
4 october, tue
tue423:00+5nnw5994100 1.8 1014285
02:00+5nnw598899 0.1 1017484
05:00+2nw38925 0.1 1020146
08:00+2nw38915 0.0 1022176
11:00+6nw4772100 0.0 1024445
14:00+7nw4663100 0.0 1025641
17:00+6wnw2372100 0.0 102724
20:00+4w2278100 0.0 102811
5 october, wed
wed523:00+4w2285100 0.0 102819
02:00+2wnw0088100 0.0 102910
05:00+2se228999 0.0 102910
08:00+2se2290100 0.0 103041
11:00+6se3577100 0.0 1030284
14:00+7sse456988 0.0 1029476
17:00+6se3780100 0.0 1028205
20:00+5se4986100 0.3 1028289
6 october, thu
thu623:00+5se4893100 1.3 1027305
02:00+5se4894100 0.6 1026284
05:00+5se4996100 1.5 1024291
08:00+5se4996100 0.6 1023335
11:00+7sse5787100 0.6 1022496
14:00+8s4785100 0.0 1021631
17:00+7ssw3687100 0.0 1019224
20:00+7s3889100 0.0 1018219
7 october, fri
fri723:00+6s4891100 0.2 1017282
02:00+6s4895100 1.3 1015419
05:00+6s4893100 1.6 1012481
08:00+5s4893100 0.6 1010497
11:00+5ssw4796100 1.1 1009464
14:00+5sw3595100 0.1 1008314
17:00+5ssw2495100 0.1 1007179
20:00+5s3596100 0.1 1006182
8 october, sat
sat823:00+5s3697100 0.1 1005196
02:00+5s3597100 0.1 1004164
05:00+5s2498100 0.1 1003132
08:00+5s2497100 0.1 100296
11:00+7ssw238957 0.1 1003308
14:00+8w228290 0.1 1003453
17:00+6wnw2290100 0.3 100444
20:00+6wnw228799 0.1 100533